STARLINK-35851

Last updated on Sun Dec 07 2025 00:02:05 GMT+0000 (Coordinated Universal Time)

1 66356U 25254J 25340.58335648 -.00126421 00000+0 -22978-2 0 9997 2 66356 53.1601 306.0063 0001012 74.8766 350.7563 15.49359751 5939
UTC large
Height (km)
Speed (km/s)
/
Latitude / Longitude
Inclination (degrees)
Orbital Period (minutes)
Azimuth
Elevation
Range (km)
Doppler Factor

Next 0 passes for location: London (51.5072 / 0.1276)

Sorry there are no passes over London.